FW3224 Weather Reports


time (UTC)temp
F
wind
direction
speed
knots
gust
knots
rain 1hr
in
rain 24hr
in
rain mn
in
humidity
%
barometer
mb
20260508155551 55 300 1.7 3.5 0.00 0.00 0.00 70 1021.3
20260508155050 55 309 1.7 3.5 0.00 0.00 0.00 70 1021.3
20260508154554 56 294 1.7 3.5 0.00 0.00 0.00 69 1021.3
20260508154051 56 277 1.7 5.2 0.00 0.00 0.00 68 1021.3
20260508153547 56 307 2.6 4.3 0.00 0.00 0.00 68 1021.3
20260508153047 56 283 2.6 6.1 0.00 0.00 0.00 68 1021.2
20260508152546 56 282 2.6 6.1 0.00 0.00 0.00 68 1021.3
20260508152046 56 302 1.7 3.5 0.00 0.00 0.00 68 1021.2
20260508151546 56 283 1.7 3.5 0.00 0.00 0.00 68 1021.3
20260508151047 56 282 0.9 2.6 0.00 0.00 0.00 68 1021.3
20260508150545 56 267 0.9 2.6 0.00 0.00 0.00 68 1021.3
20260508150045 56 264 0.0 1.7 0.00 0.00 0.00 68 1021.3
20260508145545 56 264 0.9 1.7 0.00 0.00 0.00 68 1021.3
20260508145047 56 264 0.9 2.6 0.00 0.00 0.00 67 1021.3
20260508144544 56 264 0.9 2.6 0.00 0.00 0.00 67 1021.2
20260508144044 56 256 0.9 3.5 0.00 0.00 0.00 67 1021.2
20260508143545 56 298 1.7 3.5 0.00 0.00 0.00 67 1021.1
20260508143043 56 236 0.9 4.3 0.00 0.00 0.00 67 1021.1
20260508142542 56 267 1.7 6.1 0.00 0.00 0.00 68 1021.1
20260508142042 56 249 1.7 6.1 0.00 0.00 0.00 68 1021.1
20260508141549 56 260 1.7 4.3 0.00 0.00 0.00 68 1021.1
20260508141040 56 259 1.7 4.3 0.00 0.00 0.00 68 1021.0
20260508140543 56 267 0.9 4.3 0.00 0.00 0.00 68 1021.0
20260508140049 56 286 1.7 3.5 0.00 0.00 0.00 69 1021.0
20260508135541 56 287 1.7 3.5 0.00 0.00 0.00 69 1021.0
20260508135038 56 263 0.9 3.5 0.00 0.00 0.00 69 1021.0
20260508134538 56 274 0.9 3.5 0.00 0.00 0.00 70 1021.0
20260508134038 56 277 1.7 4.3 0.00 0.00 0.00 70 1021.0
20260508133538 56 266 1.7 5.2 0.00 0.00 0.00 70 1020.9
20260508133038 56 275 1.7 5.2 0.00 0.00 0.00 69 1021.0
20260508132538 56 240 0.9 5.2 0.00 0.00 0.00 68 1021.0
20260508132037 57 306 0.9 3.5 0.00 0.00 0.00 68 1020.9
20260508131537 57 216 0.9 3.5 0.00 0.00 0.00 68 1020.9
20260508131038 56 205 0.9 4.3 0.00 0.00 0.00 68 1021.0
20260508130537 56 196 1.7 4.3 0.00 0.00 0.00 69 1020.9
20260508130039 56 289 0.9 3.5 0.00 0.00 0.00 70 1020.9
20260508125537 56 226 0.9 2.6 0.00 0.00 0.00 69 1021.0
20260508125037 56 267 0.9 2.6 0.00 0.00 0.00 69 1021.0
20260508124536 57 273 0.9 3.5 0.00 0.00 0.00 68 1020.9
20260508124035 57 237 0.9 5.2 0.00 0.00 0.00 67 1021.0
20260508123538 57 257 1.7 5.2 0.00 0.00 0.00 67 1021.0
20260508123036 57 277 1.7 5.2 0.00 0.00 0.00 67 1021.0
20260508122534 57 267 1.7 4.3 0.00 0.00 0.00 66 1021.0
20260508122037 57 267 1.7 6.1 0.00 0.00 0.00 66 1020.9
20260508121535 57 279 1.7 3.5 0.00 0.00 0.00 66 1021.0
20260508121034 57 263 0.9 3.5 0.00 0.00 0.00 66 1021.0
20260508120535 57 262 1.7 3.5 0.00 0.00 0.00 66 1021.0
20260508120038 57 271 1.7 3.5 0.00 0.00 0.00 65 1021.0
20260508115533 57 272 0.9 4.3 0.00 0.00 0.00 65 1021.0
20260508115034 58 254 1.7 4.3 0.00 0.00 0.00 64 1020.9
20260508114533 58 266 1.7 6.1 0.00 0.00 0.00 64 1020.9
20260508114033 58 262 2.6 6.1 0.00 0.00 0.00 64 1020.8
20260508113533 57 268 2.6 6.1 0.00 0.00 0.00 66 1020.7
20260508113033 58 279 3.5 6.1 0.00 0.00 0.00 66 1020.7
20260508112532 58 231 2.6 6.1 0.00 0.00 0.00 65 1020.7
20260508112032 58 251 2.6 6.1 0.00 0.00 0.00 65 1020.8
20260508111548 58 247 0.9 6.1 0.00 0.00 0.00 65 1020.9
20260508111034 58 234 1.7 6.1 0.00 0.00 0.00 64 1020.9
20260508110535 58 212 0.9 4.3 0.00 0.00 0.00 64 1020.9
20260508110031 58 185 1.7 4.3 0.00 0.00 0.00 63 1020.8
20260508105530 58 171 0.9 4.3 0.00 0.00 0.00 63 1020.8
20260508105028 58 202 1.7 4.3 0.00 0.00 0.00 63 1020.7
20260508104529 58 218 0.9 3.5 0.00 0.00 0.00 63 1020.6
20260508104028 59 159 0.9 4.3 0.00 0.00 0.00 63 1020.6
20260508103528 59 242 0.9 4.3 0.00 0.00 0.00 63 1020.5
20260508103032 59 256 0.9 6.1 0.00 0.00 0.00 63 1020.4
20260508102529 59 180 1.7 6.1 0.00 0.00 0.00 62 1020.4
20260508102027 59 205 1.7 6.1 0.00 0.00 0.00 62 1020.3
20260508101534 59 209 1.7 7.0 0.00 0.00 0.00 62 1020.4
20260508101027 59 157 1.7 7.8 0.00 0.00 0.00 62 1020.2
20260508100525 60 204 0.9 3.5 0.00 0.00 0.00 61 1020.2
20260508100028 60 210 0.9 4.3 0.00 0.00 0.00 61 1020.1
20260508095524 60 225 1.7 4.3 0.00 0.00 0.00 61 1020.1
20260508095023 60 266 1.7 8.7 0.00 0.00 0.00 60 1020.0
20260508094522 60 216 1.7 8.7 0.00 0.00 0.00 60 1019.9
20260508094021 60 187 1.7 8.7 0.00 0.00 0.00 60 1019.8
20260508093521 60 252 0.9 7.8 0.00 0.00 0.00 60 1019.7
20260508093020 60 221 2.6 7.8 0.00 0.00 0.00 59 1019.7
20260508092520 60 252 2.6 7.8 0.00 0.00 0.00 59 1019.5
20260508092019 60 259 1.7 6.1 0.00 0.00 0.00 59 1019.5
20260508091519 60 195 1.7 6.1 0.00 0.00 0.00 60 1019.5
20260508091018 61 271 0.9 3.5 0.00 0.00 0.00 59 1019.5
20260508090518 61 227 0.9 5.2 0.00 0.00 0.00 58 1019.4
20260508090018 61 198 1.7 6.1 0.00 0.00 0.00 58 1019.3
20260508085517 61 186 1.7 6.1 0.00 0.00 0.00 58 1019.2
20260508085016 62 209 0.9 4.3 0.00 0.00 0.00 58 1019.1
20260508084515 62 206 1.7 5.2 0.00 0.00 0.00 58 1019.1
20260508084018 62 257 1.7 5.2 0.00 0.00 0.00 57 1019.0
20260508083515 62 298 1.7 5.2 0.00 0.00 0.00 57 1018.9
20260508083014 62 254 0.9 5.2 0.00 0.00 0.00 57 1018.7
20260508082514 63 256 0.9 3.5 0.00 0.00 0.00 56 1018.6
20260508082014 63 259 0.9 5.2 0.00 0.00 0.00 55 1018.5
20260508081514 63 173 0.9 5.2 0.00 0.00 0.00 55 1018.4
20260508081014 63 249 0.9 4.3 0.00 0.00 0.00 54 1018.3
20260508080513 63 222 0.0 2.6 0.00 0.00 0.00 54 1018.2
20260508080013 64 257 0.9 4.3 0.00 0.00 0.00 54 1018.0
20260508075513 64 160 0.9 5.2 0.00 0.00 0.00 53 1018.0
20260508075014 64 175 0.9 9.6 0.00 0.00 0.00 51 1017.8
20260508074513 64 186 1.7 9.6 0.00 0.00 0.00 51 1017.7
20260508074012 64 190 2.6 9.6 0.00 0.00 0.00 51 1017.6
20260508073512 65 219 1.7 6.1 0.00 0.00 0.00 51 1017.5
20260508073013 65 175 1.7 5.2 0.00 0.00 0.00 51 1017.4
20260508072511 65 211 1.7 5.2 0.00 0.00 0.00 50 1017.3
20260508072012 65 209 1.7 5.2 0.00 0.00 0.00 50 1017.3
20260508071511 0 0.0 0.0 0.00 0.00 0.00 1017.2
20260508071013 0 0.0 0.0 0.00 0.00 0.00 1017.0
20260508070510 0 0.0 0.0 0.00 0.00 0.00 1016.9
20260508070006 0 0.0 0.0 0.00 0.00 0.00 1016.8
20260508065505 0 0.0 0.0 0.00 0.00 0.00 1016.7
20260508065004 0 0.0 0.0 0.00 0.00 0.00 1016.7
20260508064504 0 0.0 0.0 0.00 0.00 0.00 1016.5
20260508064101 0 0.0 0.0 0.00 0.00 0.00 1016.5
20260508063600 0 0.0 0.0 0.00 0.00 0.00 1016.4
20260508063058 0 0.0 0.0 0.00 0.00 0.00 1016.1
20260508062557 69 207 1.7 5.2 0.00 0.00 0.00 43 1016.1
20260508062057 69 207 1.7 5.2 0.00 0.00 0.00 43 1016.0
20260508061558 69 207 1.7 5.2 0.00 0.00 0.00 43 1015.9
20260508061056 69 183 2.6 9.6 0.00 0.00 0.00 43 1015.8
20260508060557 69 188 3.5 9.6 0.00 0.00 0.00 42 1015.9
20260508060056 69 252 2.6 10.4 0.00 0.00 0.00 41 1015.8
20260508055558 69 226 3.5 10.4 0.00 0.00 0.00 42 1015.7
20260508055056 69 221 1.7 7.8 0.00 0.00 0.00 42 1015.6
20260508054603 70 205 3.5 7.8 0.00 0.00 0.00 41 1015.6
20260508054055 70 229 2.6 7.8 0.00 0.00 0.00 41 1015.5
20260508053555 70 203 3.5 8.7 0.00 0.00 0.00 41 1015.6
20260508053056 70 207 3.5 8.7 0.00 0.00 0.00 41 1015.5
20260508052554 70 227 1.7 7.8 0.00 0.00 0.00 41 1015.4
20260508052056 70 235 2.6 10.4 0.00 0.00 0.00 40 1015.4
20260508051555 70 169 5.2 10.4 0.00 0.00 0.00 40 1015.4
20260508051054 70 233 4.3 10.4 0.00 0.00 0.00 39 1015.4
20260508050555 70 230 4.3 8.7 0.00 0.00 0.00 39 1015.3
20260508050054 70 202 3.5 7.8 0.00 0.00 0.00 40 1015.3
20260508045553 70 232 3.5 12.2 0.00 0.00 0.00 40 1015.3
20260508045055 70 202 5.2 12.2 0.00 0.00 0.00 39 1015.3
20260508044553 70 258 3.5 12.2 0.00 0.00 0.00 39 1015.2
20260508044054 70 210 5.2 11.3 0.00 0.00 0.00 39 1015.1
20260508043553 70 171 3.5 8.7 0.00 0.00 0.00 39 1015.2
20260508043100 70 270 3.5 12.2 0.00 0.00 0.00 39 1015.2
20260508042552 70 225 5.2 11.3 0.00 0.00 0.00 40 1015.2
20260508042057 70 194 3.5 9.6 0.00 0.00 0.00 41 1015.1
20260508041556 70 182 3.5 10.4 0.00 0.00 0.00 41 1015.2
20260508041051 70 161 3.5 10.4 0.00 0.00 0.00 40 1015.1
20260508040549 70 184 3.5 9.6 0.00 0.00 0.00 40 1015.2
20260508040048 70 227 3.5 9.6 0.00 0.00 0.00 40 1015.3
20260508035547 70 227 3.5 9.6 0.00 0.00 0.00 40 1015.3
20260508035046 69 191 1.7 10.4 0.00 0.00 0.00 41 1015.4
20260508034549 69 175 4.3 10.4 0.00 0.00 0.00 42 1015.4
20260508034043 68 239 3.5 8.7 0.00 0.00 0.00 43 1015.4
20260508033541 68 251 4.3 8.7 0.00 0.00 0.00 46 1015.5
20260508033040 67 242 3.5 10.4 0.00 0.00 0.00 46 1015.5
20260508032544 67 258 4.3 10.4 0.00 0.00 0.00 46 1015.5
20260508032044 67 248 4.3 10.4 0.00 0.00 0.00 46 1015.6
20260508031538 67 288 2.6 8.7 0.00 0.00 0.00 46 1015.6
20260508031036 67 317 3.5 9.6 0.00 0.00 0.00 47 1015.7
20260508030536 67 271 5.2 11.3 0.00 0.00 0.00 47 1015.6
20260508030036 66 267 6.1 10.4 0.00 0.00 0.00 47 1015.7
20260508025537 66 248 4.3 9.6 0.00 0.00 0.00 47 1015.7
20260508025033 66 290 5.2 9.6 0.00 0.00 0.00 47 1015.7
20260508024543 66 275 6.1 12.2 0.00 0.00 0.00 48 1015.9
20260508024031 65 248 5.2 13.0 0.00 0.00 0.00 49 1016.0
20260508023529 65 279 5.2 13.0 0.00 0.00 0.00 49 1016.1
20260508023030 65 284 7.0 14.8 0.00 0.00 0.00 49 1016.2
20260508022527 65 274 5.2 14.8 0.00 0.00 0.00 50 1016.3
20260508022027 65 222 5.2 13.0 0.00 0.00 0.00 50 1016.2
20260508021526 64 329 6.1 12.2 0.00 0.00 0.00 49 1016.4
20260508021025 64 216 7.0 12.2 0.00 0.00 0.00 49 1016.4
20260508020524 64 282 4.3 12.2 0.00 0.00 0.00 50 1016.7
20260508020023 64 288 6.1 12.2 0.00 0.00 0.00 49 1016.8
20260508015523 64 243 5.2 11.3 0.00 0.00 0.00 50 1016.9
20260508015021 64 246 4.3 12.2 0.00 0.00 0.00 51 1017.0
20260508014540 63 273 5.2 12.2 0.00 0.00 0.00 51 1017.1
20260508014020 63 236 5.2 12.2 0.00 0.00 0.00 51 1017.2
20260508013518 63 229 4.3 12.2 0.00 0.00 0.00 53 1017.2
20260508013018 62 252 7.0 12.2 0.00 0.00 0.00 51 1017.3
20260508012518 62 293 4.3 13.0 0.00 0.00 0.00 53 1017.4
20260508012016 62 248 7.0 13.0 0.00 0.00 0.00 52 1017.4
20260508011518 61 246 3.5 11.3 0.00 0.00 0.00 54 1017.4
20260508011013 61 242 6.1 13.0 0.00 0.00 0.00 53 1017.6
20260508010513 60 274 7.8 13.9 0.00 0.00 0.00 54 1017.6
20260508010021 60 254 7.0 13.9 0.00 0.00 0.00 54 1017.6
20260508005517 60 273 7.0 13.9 0.00 0.00 0.00 54 1017.6
20260508005010 60 299 7.0 13.9 0.00 0.00 0.00 54 1017.7
20260508004516 60 267 5.2 13.0 0.00 0.00 0.00 55 1017.7
20260508004008 59 300 5.2 15.6 0.00 0.00 0.00 55 1017.9
20260508003507 59 257 7.0 15.6 0.00 0.00 0.00 55 1017.9
20260508003025 59 248 5.2 11.3 0.00 0.00 0.00 56 1018.0
20260508002505 59 242 5.2 10.4 0.00 0.00 0.00 56 1017.9
20260508002008 58 223 4.3 10.4 0.00 0.00 0.00 57 1018.1
20260508001502 58 271 5.2 8.7 0.00 0.00 0.00 58 1018.1
20260508001001 57 265 5.2 11.3 0.00 0.00 0.00 58 1018.2
20260508000500 57 248 7.0 11.3 0.00 0.00 0.00 58 1018.2
20260507235602 56 245 6.1 17.4 0.00 0.00 0.00 59 1018.3
20260507235057 56 288 6.1 13.0 0.00 0.00 0.00 59 1018.3
20260507234556 55 240 7.0 12.2 0.00 0.00 0.00 59 1018.3
20260507234053 55 269 6.1 12.2 0.00 0.00 0.00 60 1018.3
20260507233552 55 234 7.0 14.8 0.00 0.00 0.00 60 1018.3
20260507233051 55 258 7.8 14.8 0.00 0.00 0.00 61 1018.2
20260507232549 54 255 7.0 13.0 0.00 0.00 0.00 61 1018.2
20260507232049 54 301 7.8 13.0 0.00 0.00 0.00 62 1018.3
20260507231546 53 267 6.1 13.0 0.00 0.00 0.00 62 1018.5
20260507231045 53 272 6.1 13.0 0.00 0.00 0.00 62 1018.4
20260507230543 53 251 6.1 13.0 0.00 0.00 0.00 63 1018.5
20260507230043 52 265 4.3 11.3 0.00 0.00 0.00 64 1018.5
20260507225541 52 279 5.2 10.4 0.00 0.00 0.00 64 1018.5
20260507225041 51 209 6.1 11.3 0.00 0.00 0.00 64 1018.5
20260507224558 51 279 6.1 13.9 0.00 0.00 0.00 64 1018.5
20260507224039 51 265 8.7 15.6 0.00 0.00 0.00 64 1018.5
20260507223537 50 239 8.7 15.6 0.00 0.00 0.00 64 1018.6
20260507223041 50 270 7.0 13.0 0.00 0.00 0.00 65 1018.6
20260507222536 50 282 6.1 11.3 0.00 0.00 0.00 66 1018.6
20260507222035 50 296 6.1 14.8 0.00 0.00 0.00 66 1018.7
20260507221534 49 262 7.8 14.8 0.00 0.00 0.00 66 1018.6
20260507221035 49 246 5.2 11.3 0.00 0.00 0.00 67 1018.6
20260507220537 48 246 7.0 11.3 0.00 0.00 0.00 67 1018.6
20260507220033 48 264 6.1 11.3 0.00 0.00 0.00 67 1018.6
20260507215533 48 252 6.1 11.3 0.00 0.00 0.00 68 1018.5
20260507215034 48 278 5.2 11.3 0.00 0.00 0.00 68 1018.4
20260507214531 48 277 6.1 11.3 0.00 0.00 0.00 68 1018.4
20260507214031 47 261 5.2 11.3 0.00 0.00 0.00 68 1018.5
20260507213533 47 232 5.2 12.2 0.00 0.00 0.00 68 1018.3
20260507213031 47 241 6.1 12.2 0.00 0.00 0.00 69 1018.4
20260507212529 47 275 5.2 11.3 0.00 0.00 0.00 69 1018.2
20260507212030 47 248 7.0 14.8 0.00 0.00 0.00 69 1018.2
20260507211529 47 317 6.1 12.2 0.00 0.00 0.00 69 1018.2
20260507211028 47 269 5.2 11.3 0.00 0.00 0.00 69 1018.2
20260507210530 46 271 5.2 12.2 0.00 0.00 0.00 69 1018.2
20260507210032 46 244 6.1 12.2 0.00 0.00 0.00 69 1018.3
20260507205528 46 239 6.1 11.3 0.00 0.00 0.00 69 1018.2
20260507205030 46 279 5.2 8.7 0.00 0.00 0.00 69 1018.3
20260507204526 46 284 3.5 8.7 0.00 0.00 0.00 69 1018.4
20260507204026 46 277 4.3 8.7 0.00 0.00 0.00 69 1018.4
20260507203525 46 280 3.5 7.8 0.00 0.00 0.00 68 1018.2
20260507203024 46 288 4.3 8.7 0.00 0.00 0.00 68 1018.2
20260507202523 46 276 4.3 8.7 0.00 0.00 0.00 68 1018.4
20260507202024 47 271 3.5 9.6 0.00 0.00 0.00 67 1018.4
20260507201526 47 265 3.5 10.4 0.00 0.00 0.00 67 1018.4
20260507201021 47 244 6.1 10.4 0.00 0.00 0.00 66 1018.4
20260507200519 47 250 5.2 8.7 0.00 0.00 0.00 66 1018.3
20260507200019 47 252 5.2 11.3 0.00 0.00 0.00 66 1018.2
20260507195618 47 212 6.1 11.3 0.00 0.00 0.00 65 1018.1
20260507195017 47 243 6.1 11.3 0.00 0.00 0.00 65 1018.1
20260507194517 48 281 5.2 10.4 0.00 0.00 0.00 65 1018.1
20260507194016 48 284 6.1 10.4 0.00 0.00 0.00 65 1018.1
20260507193516 48 269 6.1 12.2 0.00 0.00 0.00 64 1018.0
20260507193014 48 275 4.3 12.2 0.00 0.00 0.00 64 1018.0
20260507192515 48 264 6.1 11.3 0.00 0.00 0.00 64 1017.9
20260507192016 48 279 5.2 11.3 0.00 0.00 0.00 64 1017.8
20260507191514 48 283 5.2 13.0 0.00 0.00 0.00 64 1017.8
20260507191013 48 275 6.1 11.3 0.00 0.00 0.00 63 1017.9
20260507190512 48 294 5.2 11.3 0.00 0.00 0.00 64 1017.7
20260507190011 48 271 4.3 9.6 0.00 0.00 0.00 63 1017.7
20260507185510 48 264 5.2 9.6 0.00 0.00 0.00 63 1017.7
20260507185009 48 271 4.3 9.6 0.00 0.00 0.00 63 1017.8
20260507184512 48 286 5.2 12.2 0.00 0.00 0.00 63 1017.9
20260507184007 48 294 6.1 12.2 0.00 0.00 0.00 63 1017.9
20260507183506 48 286 5.2 10.4 0.00 0.00 0.00 63 1017.8
20260507183007 48 306 6.1 10.4 0.00 0.00 0.00 63 1017.8
20260507182506 48 286 5.2 10.4 0.00 0.00 0.00 63 1017.9
20260507182006 48 241 4.3 9.6 0.00 0.00 0.00 63 1017.9
20260507181506 48 278 4.3 8.7 0.00 0.00 0.00 63 1017.9
20260507181004 48 281 4.3 8.7 0.00 0.00 0.00 63 1017.9
20260507180504 48 271 5.2 8.7 0.00 0.00 0.00 63 1018.0
20260507180007 48 249 4.3 7.8 0.00 0.00 0.00 63 1017.9
20260507175501 48 263 4.3 7.8 0.00 0.00 0.00 63 1017.9
20260507175100 48 259 3.5 10.4 0.00 0.00 0.00 62 1017.8
20260507174600 48 270 3.5 10.4 0.00 0.00 0.00 62 1017.8
20260507174501 48 259 4.3 10.4 0.00 0.00 0.00 62 1017.8
20260507174059 48 316 3.5 10.4 0.00 0.00 0.00 61 1017.9
20260507173557 48 267 3.5 7.0 0.00 0.00 0.00 61 1017.9
20260507173100 48 278 2.6 6.1 0.00 0.00 0.00 61 1017.9
20260507172555 49 274 1.7 7.0 0.00 0.00 0.00 60 1018.0
20260507172054 49 285 3.5 7.0 0.00 0.00 0.00 60 1018.1
20260507171557 49 288 3.5 7.0 0.00 0.00 0.00 59 1018.1
20260507171052 49 269 3.5 7.0 0.00 0.00 0.00 59 1018.1
20260507170552 49 279 3.5 7.0 0.00 0.00 0.00 59 1018.2
20260507170051 49 295 3.5 7.0 0.00 0.00 0.00 59 1018.2
20260507165550 49 257 3.5 7.0 0.00 0.00 0.00 59 1018.2
20260507165053 49 292 2.6 6.1 0.00 0.00 0.00 59 1018.2
20260507164548 49 281 2.6 6.1 0.00 0.00 0.00 58 1018.3
20260507164048 49 288 2.6 7.8 0.00 0.00 0.00 57 1018.3
20260507163549 49 273 2.6 7.0 0.00 0.00 0.00 57 1018.4
20260507163046 49 265 3.5 8.7 0.00 0.00 0.00 57 1018.4
20260507162546 50 298 3.5 8.7 0.00 0.00 0.00 57 1018.3
20260507162044 50 243 3.5 7.0 0.00 0.00 0.00 56 1018.4
20260507161543 50 254 2.6 6.1 0.00 0.00 0.00 56 1018.4
20260507161042 50 289 2.6 9.6 0.00 0.00 0.00 55 1018.3
20260507160541 51 282 2.6 9.6 0.00 0.00 0.00 56 1018.4